CW4409 Weather Reports


time (UTC)temp
F
wind
direction
speed
knots
gust
knots
rain 1hr
in
rain 24hr
in
rain mn
in
humidity
%
barometer
mb
20260503050855 58 59 0.0 0.0 0.00 0.00 0.00 48 1011.0
20260503045928 60 59 0.0 0.0 0.00 0.00 0.00 47 1011.0
20260503044925 61 59 0.0 0.0 0.00 0.00 0.00 44 1011.0
20260503043914 61 59 0.0 2.6 0.00 0.00 0.00 42 1010.9
20260503042903 62 59 0.0 0.0 0.00 0.00 0.00 42 1010.8
20260503041905 63 59 0.0 0.0 0.00 0.00 0.00 41 1010.8
20260503040939 64 59 0.0 3.5 0.00 0.00 0.00 37 1010.8
20260503035917 64 59 0.0 0.0 0.00 0.00 0.00 38 1010.7
20260503034916 65 59 0.0 3.5 0.00 0.00 0.00 36 1010.6
20260503033937 65 59 0.0 0.0 0.00 0.00 0.00 35 1010.5
20260503032923 66 59 0.0 7.8 0.00 0.00 0.00 33 1010.3
20260503031931 67 59 0.0 4.3 0.00 0.00 0.00 32 1010.2
20260503030924 67 59 0.0 4.3 0.00 0.00 0.00 31 1010.2
20260503025917 68 59 0.9 7.0 0.00 0.00 0.00 31 1010.0
20260503024911 69 59 0.0 4.3 0.00 0.00 0.00 31 1010.0
20260503023922 70 59 0.0 0.9 0.00 0.00 0.00 31 1010.0
20260503022855 71 61 0.0 0.9 0.00 0.00 0.00 29 1009.9
20260503021940 72 61 0.0 2.6 0.00 0.00 0.00 28 1009.9
20260503020858 72 61 0.9 7.0 0.00 0.00 0.00 26 1009.9
20260503015939 73 61 0.0 4.3 0.00 0.00 0.00 26 1009.9
20260503014917 73 61 0.9 4.3 0.00 0.00 0.00 26 1010.1
20260503013923 74 61 0.0 4.3 0.00 0.00 0.00 24 1010.2
20260503012909 75 61 0.0 1.7 0.00 0.00 0.00 23 1010.2
20260503011926 75 61 0.0 2.6 0.00 0.00 0.00 22 1010.2
20260503010929 76 61 0.0 3.5 0.00 0.00 0.00 21 1010.3
20260503005913 76 61 0.0 1.7 0.00 0.00 0.00 21 1010.3
20260503004911 77 61 0.0 6.1 0.00 0.00 0.00 20 1010.4
20260503003926 77 61 0.9 7.0 0.00 0.00 0.00 19 1010.4
20260503002917 77 62 0.9 7.0 0.00 0.00 0.00 21 1010.3
20260503001936 78 66 0.9 4.3 0.00 0.00 0.00 20 1010.4
20260503000936 78 66 0.0 9.6 0.00 0.00 0.00 19 1010.5
20260502235856 78 81 0.0 8.7 0.00 0.00 0.00 16 1010.5
20260502234937 78 83 0.0 0.0 0.00 0.00 0.00 18 1010.6
20260502233933 78 84 0.0 0.9 0.00 0.00 0.00 19 1010.8
20260502232906 78 84 0.0 8.7 0.00 0.00 0.00 19 1010.8
20260502231931 79 89 0.0 6.1 0.00 0.00 0.00 20 1010.8
20260502230858 79 93 0.0 6.1 0.00 0.00 0.00 20 1010.7
20260502225909 79 94 0.0 7.8 0.00 0.00 0.00 17 1010.9
20260502224911 79 114 0.0 7.8 0.00 0.00 0.00 23 1011.0
20260502223855 79 121 0.0 0.9 0.00 0.00 0.00 18 1011.2
20260502222930 78 125 0.0 0.0 0.00 0.00 0.00 19 1011.3
20260502221928 79 126 0.0 6.1 0.00 0.00 0.00 21 1011.4
20260502220940 79 135 0.0 0.9 0.00 0.00 0.00 21 1011.5
20260502215936 79 135 0.0 0.0 0.00 0.00 0.00 19 1011.7
20260502214926 79 136 0.0 3.5 0.00 0.00 0.00 20 1012.0
20260502213930 79 136 0.0 6.1 0.00 0.00 0.00 16 1011.9
20260502212939 79 136 0.0 5.2 0.00 0.00 0.00 18 1012.1
20260502211925 78 136 0.0 3.5 0.00 0.00 0.00 20 1012.4
20260502210918 78 136 0.0 1.7 0.00 0.00 0.00 18 1012.4
20260502205937 77 136 0.0 0.0 0.00 0.00 0.00 20 1012.5
20260502204931 77 135 0.0 0.9 0.00 0.00 0.00 22 1012.7
20260502203922 76 136 0.0 0.0 0.00 0.00 0.00 22 1012.8
20260502202856 76 136 0.0 7.0 0.00 0.00 0.00 23 1013.0
20260502201917 75 136 0.0 5.2 0.00 0.00 0.00 23 1013.1
20260502200940 75 138 0.0 0.9 0.00 0.00 0.00 21 1013.1
20260502195931 74 140 1.7 8.7 0.00 0.00 0.00 25 1013.1
20260502194904 74 144 0.0 8.7 0.00 0.00 0.00 25 1013.4
20260502193900 72 158 0.0 6.1 0.00 0.00 0.00 27 1013.6
20260502192938 71 158 0.0 4.3 0.00 0.00 0.00 27 1013.6
20260502191931 71 158 0.0 3.5 0.00 0.00 0.00 27 1013.8
20260502190859 71 158 0.0 0.9 0.00 0.00 0.00 25 1014.1
20260502185858 71 158 0.0 0.0 0.00 0.00 0.00 26 1014.1
20260502184857 71 158 0.0 0.0 0.00 0.00 0.00 26 1014.1
20260502183903 70 158 0.0 0.9 0.00 0.00 0.00 25 1014.2
20260502182940 69 158 0.0 3.5 0.00 0.00 0.00 27 1014.6
20260502181856 69 158 0.0 4.3 0.00 0.00 0.00 27 1014.6
20260502180915 68 158 0.0 3.5 0.00 0.00 0.00 28 1014.7
20260502163934 62 157 0.0 0.0 0.00 0.00 0.00 33 1015.3
20260502162905 61 157 0.0 7.8 0.00 0.00 0.00 32 1015.3
20260502161921 61 155 0.9 5.2 0.00 0.00 0.00 31 1015.4
20260502160930 60 150 0.0 6.1 0.00 0.00 0.00 35 1015.3
20260502151914 56 144 0.0 0.0 0.00 0.00 0.00 49 1015.1
20260502150902 54 144 0.0 0.0 0.00 0.00 0.00 61 1015.1
20260502122908 43 144 0.0 0.0 0.00 0.00 0.00 65 1014.3
20260502121921 43 144 0.0 0.0 0.00 0.00 0.00 65 1014.2
20260502120914 43 144 0.0 0.0 0.00 0.00 0.00 64 1014.4
20260502115910 44 144 0.0 0.0 0.00 0.00 0.00 63 1014.3
20260502114928 44 144 0.0 0.0 0.00 0.00 0.00 62 1014.4
20260502113902 44 144 0.0 0.0 0.00 0.00 0.00 60 1014.3
20260502112856 45 144 0.0 0.0 0.00 0.00 0.00 59 1014.3
20260502111915 45 144 0.0 0.0 0.00 0.00 0.00 59 1014.3
20260502110919 46 144 0.0 0.0 0.00 0.00 0.00 57 1014.2
20260502105858 46 144 0.0 0.0 0.00 0.00 0.00 56 1014.2
20260502104907 48 144 0.0 0.0 0.00 0.00 0.00 54 1014.3
20260502103856 49 144 0.0 0.0 0.00 0.00 0.00 52 1014.2
20260502102934 49 144 0.0 0.0 0.00 0.00 0.00 51 1014.2
20260502101914 49 144 0.0 0.0 0.00 0.00 0.00 51 1014.3
20260502100908 49 144 0.0 0.0 0.00 0.00 0.00 52 1014.2
20260502090906 47 144 0.0 0.0 0.00 0.00 0.00 58 1014.2
20260502070934 52 144 0.0 0.0 0.00 0.00 0.00 46 1014.6
20260502065928 52 144 0.0 0.0 0.00 0.00 0.00 48 1014.6
20260502064906 51 144 0.0 0.0 0.00 0.00 0.00 48 1014.6
20260502063917 51 144 0.0 0.0 0.00 0.00 0.00 50 1014.6
20260502062932 51 144 0.0 0.0 0.00 0.00 0.00 50 1014.6
20260502061924 52 144 0.0 0.0 0.00 0.00 0.00 49 1014.6
20260502060913 52 144 0.0 0.0 0.00 0.00 0.00 48 1014.5
20260502055912 53 144 0.0 0.0 0.00 0.00 0.00 48 1014.6
20260502054937 53 144 0.0 0.0 0.00 0.00 0.00 47 1014.6
20260502053922 54 144 0.0 0.0 0.00 0.00 0.00 45 1014.6
20260502052928 55 144 0.0 0.0 0.00 0.00 0.00 44 1014.5
20260502051908 55 144 0.0 0.0 0.00 0.00 0.00 43 1014.5